Shymkent Airport

Airport
ICAO code: 
UAII
IATA Code: 
CIT
Summary
ICAO Region: 
APAC
Territory: 
Location: 
Shymkent,
Serving: 
Shymkent
Elevation: 
1384 ft
Coordinates: 
Aerial View: 
42° 21' 47.197" N, 69° 28' 46.556" E
Airport BS: 
Bird Strike
Airport CFIT: 
Altimeter Temperature Error Correction
Metar
Observation
UAII 170300Z 11003MPS 7000 -SHRA SCT008 OVC036CB 06/05 Q1015 NOSIG RMK QFE726/0969
Station
Shymkent
Date/Time
2022-01-17 03:00:00
Wind direction
110°
Lowest cloud amount
scattered clouds
Temperature
6°C
Dew point
5°C
Humidity
93%
QNH
1015 hPa
Weather condition
n/a

Description

International airport serving the city of Shymkent, Kazakhstan.

Climatology

Cold Semi-arid climate (Köppen climate classification BSk). - Hot, sometimes extremely hot summers and cold, sometimes very cold winters. Some snowfall during the winter. Areas featuring cold semi-arid climates are sometimes subject to major temperature swings during a 24 hour period.

Runways

Designator Length Width Surface Rops
10/28 2800 44 CON No/No
Airport map: 
Aerial View: 

SKYbrary Partners:

Safety knowledge contributed by: